This demonstration page uses our WeatherBlox Daily Observations layout. Learn more.

Left ArrowRight Arrow

39.92423, -83.80882

Hourly Observations for February 21, 2020

Temp ( °F °C ) Dew Point ( °F °C ) Humidity (%) Winds ( mph kmh ) Pressure ( in mb ) Visibility ( mi km ) Precip ( " mm )
12:56 am 00:56 Clear 17 -8.3 12 -11.1 80 80 NNW 3 6 30.64 1038 10 16 N/A
1:56 am 01:56 Clear 17 -8.3 14 -10 88 88 WNW 5 7 30.63 1037 10 16 N/A
2:56 am 02:56 Clear 16 -8.9 13 -10.6 88 88 WNW 5 7 30.63 1037 10 16 N/A
3:56 am 03:56 Clear 15 -9.4 12 -11.1 88 88 NW 5 7 30.62 1037 10 16 N/A
4:56 am 04:56 Clear 16 -8.9 12 -11.1 84 84 NW 5 7 30.63 1037 10 16 N/A
5:56 am 05:56 Clear 15 -9.4 13 -10.6 91 91 WNW 3 6 30.64 1038 10 16 N/A
6:56 am 06:56 Clear 15 -9.4 13 -10.6 91 91 N N/A 30.65 1038 10 16 N/A
7:56 am 07:56 Sunny 15 -9.4 13 -10.6 91 91 N N/A 30.67 1039 10 16 N/A
8:56 am 08:56 Sunny 19 -7.2 14 -10 81 81 NW 7 11 30.69 1039 10 16 N/A
9:56 am 09:56 Sunny 21 -6.1 14 -10 74 74 WSW 3 6 30.68 1039 10 16 N/A
10:56 am 10:56 Sunny 25 -3.9 15 -9.4 66 66 VRB 5 7 30.68 1039 10 16 N/A
11:56 am 11:56 Sunny 26 -3.3 16 -8.9 66 66 W 7 11 30.67 1039 10 16 N/A
12:56 pm 12:56 Sunny 30 -1.1 15 -9.4 54 54 SW 7 11 30.64 1038 10 16 N/A
1:56 pm 13:56 Sunny 31 -0.6 16 -8.9 54 54 W 10 17 30.61 1037 10 16 N/A
2:56 pm 14:56 Sunny 33 0.6 13 -10.6 43 43 W 14 22 30.58 1036 10 16 N/A
3:56 pm 15:56 Sunny 34 1.1 13 -10.6 42 42 SW 8 13 30.56 1035 10 16 N/A
4:56 pm 16:56 Sunny 34 1.1 13 -10.6 42 42 WSW 12 19 30.55 1035 10 16 N/A
5:56 pm 17:56 Sunny 33 0.6 15 -9.4 47 47 WSW 8 13 30.54 1034 10 16 N/A
6:56 pm 18:56 Clear 30 -1.1 18 -7.8 61 61 SW 6 9 30.54 1034 10 16 N/A
7:56 pm 19:56 Clear 29 -1.7 15 -9.4 56 56 SSW 6 9 30.53 1034 10 16 N/A
8:56 pm 20:56 Clear 27 -2.8 15 -9.4 61 61 SSW 7 11 30.52 1033 10 16 N/A
9:56 pm 21:56 Clear 27 -2.8 14 -10 58 58 SSW 7 11 30.49 1033 10 16 N/A
10:56 pm 22:56 Clear 26 -3.3 14 -10 60 60 SW 8 13 30.48 1032 10 16 N/A
11:56 pm 23:56 Clear 26 -3.3 14 -10 60 60 SW 8 13 30.46 1031 10 16 N/A

Powered by AerisWeather